Tracking 19219 objects as of 18-Jul-2018
HD Live streaming from Space Station
objects crossing your sky now

IRIDIUM 71

Track IRIDIUM 71 now!
10-day predictions
IRIDIUM 71 is classified as:


NORAD ID: 25320
Int'l Code: 1998-026B
Perigee: 765.6 km
Apogee: 771.3 km
Inclination: 86.4 °
Period: 100.1 minutes
Semi major axis: 7139 km
RCS: 4.0318 m2 (large)
Launch date: May 2, 1998
Source: United States (US)
Launch site: Taiyaun Space Center, China (TSC)
aabbcc
Your satellite tracking list
Your tracking list is empty




NASA's NSSDC Master Catalog

Two Line Element Set (TLE):
1 25320U 98026B   18199.14987675  .00000072  00000-0  16806-4 0  9996
2 25320  86.3962  74.8795 0004017 104.7024 255.4619 14.39156761 60414
Source of the keplerian elements: AFSPC